Regional Weather Roundup
Issued by NWS Sterling, VA

Home | Current Version | Previous Version | Text Only | Print | Product List | Glossary Off
Versions: 1 2 3 4 5 6 7 8 9 10 11 12 13 14 15 16 17 18 19 20 21 22 23 24 25 26 27 28 29 30 31 32 33 34 35 36 37 38 39 40 41 42 43 44 45 46 47 48 49 50

000
ASUS41 KLWX 302310
RWRLWX

REGIONAL WEATHER ROUNDUP
NATIONAL WEATHER SERVICE BALTIMORE MD/WASHINGTON DC
700 PM EDT SAT APR 30 2016

Note: "FAIR" indicates few or no clouds below 12,000 feet
with no significant weather and/or obstructions to visibility.
 TC=TEMPERATURE CELSIUS

 * =Non NWS site. Station does not report precipitation (e.g. rain,
    snow, etc.), thunder, or fog.

DCZ001-MDZ009-015-VAZ040>042-051-053>054-010000-
WASHINGTON METRO

CITY           SKY/WX    TMP DP  RH WIND       PRES   REMARKS
WASHINGTON NAT CLOUDY    57  49  74 SE7       30.20F
DULLES         LGT RAIN  55  47  74 SE6       30.19S
ANDREWS AFB    PTSUNNY   55  48  77 E7        30.18F
FT BELVOIR     CLOUDY    56  48  74 SE1       30.20F
QUANTICO       CLOUDY    57  50  77 SE6       30.21F
COLLEGE PARK*  CLOUDY    55  46  71 CALM      30.19F
LEESBURG*      CLOUDY    57  52  82 SE5       30.20S
MANASSAS*      CLOUDY    55  50  82 SE5       30.19F
GAITHERSBURG*  CLOUDY    54  45  71 SE5       30.23F

$$

MDZ006>007-011-014-010000-
BALTIMORE METRO

CITY           SKY/WX    TMP DP  RH WIND       PRES   REMARKS
BWI AIRPORT    CLOUDY    56  46  69 SE6       30.19F
MD SCIENCE CTR   N/A     58  46  64 MISG      30.20F
ANNAPOLIS      PTSUNNY   56  48  74 MISG      30.20F
FORT MEADE*    CLOUDY    54  46  76 SE5       30.21F

$$

MDZ012-015-019>023-010000-
MARYLAND EASTERN SHORE

CITY           SKY/WX    TMP DP  RH WIND       PRES   REMARKS
OCEAN CITY     CLOUDY    51  43  74 NE8       30.24R
SALISBURY      CLOUDY    53  44  71 E9        30.23R
CAMBRIDGE*     CLOUDY    55  46  71 CALM      30.21S
EASTON*        CLOUDY   N/A N/A N/A CALM      30.25R

$$

MDZ017>025-010000-
SOUTHERN MARYLAND

CITY           SKY/WX    TMP DP  RH WIND       PRES   REMARKS
PATUXENT RIVER CLOUDY    56  46  69 CALM      30.21S
ST INIGOES       N/A    N/A N/A N/A MISG        N/A
LEONARDTOWN*   CLOUDY    54  50  87 CALM      30.22S

$$

MDZ003>005-010000-
NORTH CENTRAL MARYLAND

CITY           SKY/WX    TMP DP  RH WIND       PRES   REMARKS
FREDERICK*     CLOUDY    55  50  82 CALM      30.21F
HAGERSTOWN APT CLOUDY    54  47  77 SE5       30.17F
WESTMINSTER*   DRIZZLE   55  52  88 S5        30.18F

$$

MDZ501>502-010000-
WESTERN MARYLAND

CITY           SKY/WX    TMP DP  RH WIND       PRES   REMARKS
OAKLAND*       FOG       45  45 100 SE15      30.10F VSB<1/4
CUMBERLAND*    CLOUDY    54  52  94 CALM      30.17F

$$

VAZ025>031-010000-
SHENANDOAH VALLEY

CITY           SKY/WX    TMP DP  RH WIND       PRES   REMARKS
WINCHESTER*    DRIZZLE   54  50  87 SE7       30.17S
FRONT ROYAL*   CLOUDY    54  50  87 CALM      30.15S
LURAY*         LGT RAIN  55  54  94 S3        30.15S
NEW MARKET*    CLOUDY    56  52  86 CALM      30.14S
STAUNTON*      RAIN      56  54  91 CALM      30.18S
WAYNESBORO*    CLOUDY    52  51  95 MISG      30.16S

$$

WVZ021-048>050-054>055-010000-
EASTERN WEST VIRGINIA PANHANDLE

CITY           SKY/WX    TMP DP  RH WIND       PRES   REMARKS
MARTINSBURG    CLOUDY    53  47  79 SE5       30.16F
PETERSBURG*    DRIZZLE   59  55  88 CALM      30.12F

$$

VAZ036>039-050-010000-
CENTRAL FOOTHILLS

CITY           SKY/WX    TMP DP  RH WIND       PRES   REMARKS
CHARLOTTESVILL CLOUDY    57  50  77 NE3       30.17R
CULPEPER*      CLOUDY    56  51  82 E3        30.19S
ORANGE*        CLOUDY    55  52  88 CALM      30.20S
GORDONSVILLE*  CLOUDY    56  53  87 NE3       30.17R
WARRENTON*     CLOUDY    56  47  71 E6        30.18S

$$

VAZ055>057-010000-
NORTH AND CENTRAL PIEDMONT

CITY           SKY/WX    TMP DP  RH WIND       PRES   REMARKS
FREDERICKSBRG* CLOUDY    57  51  80 E5        30.19S
STAFFORD*      CLOUDY    55  48  78 E5        30.23S

$$

NCZ024-NYZ072-PAZ021-071-VAZ022-071-010000-
OTHER REGIONAL OBSERVATIONS

CITY           SKY/WX    TMP DP  RH WIND       PRES   REMARKS
NEW YORK CITY  CLEAR     55  31  39 VRB5      30.25R
PHILADELPHIA   CLOUDY    59  43  55 S8        30.22S
PITTSBURGH     LGT RAIN  60  53  77 SW5       30.05R
ROANOKE        CLOUDY    55  53  93 E7        30.17R
RICHMOND       CLOUDY    56  50  80 E8        30.18S
RALEIGH        CLOUDY    62  57  83 E9        30.13S

$$

ANZ530>537-010000-
MARINE OBSERVATIONS

STATION/POSITION TIME  TEMP    WIND        PRES
                       AIR SEA DIR/SP/G
                 (UTC) (F)     (DEG/KT/KT) (MB)
THOMAS PT LIGHT  2300   56 57  180/  3/  3 1023.8F
BALT KEY BRIDGE  2200   57                 1022.8R
COVE POINT       2200   55                 1023.5R
LEWISETTA        2200   56 60              1022.5S
SOLOMONS ISLAND  2200   56 60                N/A
PINEY POINT      2200          130/  3/  5   N/A

$$




USA.gov is the U.S. government's official web portal to all federal, state and local government web resources and services.